This is the latest recevied weather packets stored in our database for station/object IR4UCA-3. If no packets are shown the sender has not sent any weather packets the latest 1 day(s).
| Time | Temp. | Humidity | Pressure | Rain* | Wind** | Luminosity | Snow |
|---|---|---|---|---|---|---|---|
| 1777994281 | 19.44° C | 83% | 1011.1 hPa | 0 mm | 1.79 m/s, 310° | - | - |
| 1777994165 | 19.44° C | 83% | 1011.1 hPa | 0 mm | 1.79 m/s, 350° | - | - |
| 1777994042 | 19.44° C | 83% | 1011.2 hPa | 0 mm | 2.68 m/s, 1° | - | - |
| 1777993922 | 19.44° C | 83% | 1011.1 hPa | 0 mm | 3.58 m/s, 30° | - | - |
| 1777993815 | 19.44° C | 83% | 1011 hPa | 0 mm | 2.68 m/s, 0° | - | - |
| 1777993681 | 19.44° C | 83% | 1011 hPa | 0 mm | 2.68 m/s, 38° | - | - |
| 1777993572 | 19.44° C | 83% | 1011.1 hPa | 0 mm | 3.13 m/s, 11° | - | - |
| 1777993443 | 19.44° C | 83% | 1011.2 hPa | 0 mm | 2.68 m/s, 334° | - | - |
| 1777993321 | 19.44° C | 83% | 1011.1 hPa | 0 mm | 1.79 m/s, 358° | - | - |
| 1777993198 | 19.44° C | 83% | 1011.1 hPa | 0 mm | 1.79 m/s, 355° | - | - |
| 1777993082 | 19.44° C | 83% | 1011.2 hPa | 0 mm | 1.79 m/s, 0° | - | - |
| 1777992958 | 19.44° C | 83% | 1011.1 hPa | 0 mm | 1.79 m/s, 4° | - | - |
| 1777992838 | 19.44° C | 83% | 1011.2 hPa | 0 mm | 2.24 m/s, 0° | - | - |
| 1777992717 | 19.44° C | 82% | 1011.2 hPa | 0 mm | 3.13 m/s, 354° | - | - |
| 1777992598 | 19.44° C | 82% | 1011.1 hPa | 0 mm | 2.24 m/s, 0° | - | - |
| 1777992477 | 20° C | 82% | 1011.2 hPa | 0 mm | 2.68 m/s, 30° | - | - |
| 1777992356 | 20° C | 81% | 1011.2 hPa | 0 mm | 3.13 m/s, 358° | - | - |
| 1777992237 | 20° C | 82% | 1011.2 hPa | 0 mm | 3.58 m/s, 0° | - | - |
| 1777992114 | 20° C | 82% | 1011.2 hPa | 0 mm | 3.58 m/s, 4° | - | - |
| 1777991994 | 20° C | 82% | 1011.1 hPa | 0 mm | 2.24 m/s, 357° | - | - |
| 1777991874 | 20° C | 83% | 1011.1 hPa | 0 mm | 2.68 m/s, 0° | - | - |
| 1777991753 | 20° C | 82% | 1011.1 hPa | 0 mm | 4.02 m/s, 338° | - | - |
| 1777991631 | 20° C | 82% | 1011.1 hPa | 0 mm | 3.58 m/s, 350° | - | - |
| 1777991511 | 20° C | 82% | 1011.1 hPa | 0 mm | 4.02 m/s, 0° | - | - |
| 1777991390 | 20° C | 83% | 1011.2 hPa | 0 mm | 2.68 m/s, 13° | - | - |
* Rain latest hour (hover to see other rain measurements)
** Current wind speed in m/s (hover to see current wind gust speed)